MDT,Max TemperatureF,Mean TemperatureF,Min TemperatureF,Max Dew PointF,MeanDew PointF,Min DewpointF,Max Humidity, Mean Humidity, Min Humidity, Max Sea Level PressureIn, Mean Sea Level PressureIn, Min Sea Level PressureIn, Max VisibilityMiles, Mean VisibilityMiles, Min VisibilityMiles, Max Wind SpeedMPH, Mean Wind SpeedMPH, Max Gust SpeedMPH,PrecipitationIn, CloudCover, Events, WindDirDegrees
2012-9-1,87,74,60,32,26,20,25,18,10,30.01,29.89,29.73,10,10,4,22,8,28,0.00,0,,308
2012-9-2,84,65,45,42,28,21,53,33,12,30.13,30.04,29.96,10,10,10,14,4,17,0.00,0,,288
2012-9-3,88,67,46,44,31,23,54,33,11,30.12,30.01,29.90,10,10,9,12,3,15,0.00,0,,271
2012-9-4,88,73,57,44,35,31,48,32,15,30.11,30.03,29.96,10,10,9,17,4,21,0.00,0,,317
2012-9-5,89,69,49,45,39,35,61,38,15,30.07,29.96,29.81,10,10,9,7,2,9,0.00,0,,203
2012-9-6,82,67,52,50,42,38,60,42,23,30.01,29.95,29.84,10,10,10,13,3,18,0.00,0,,221
2012-9-7,88,69,49,48,41,35,68,42,16,30.22,30.14,30.03,10,10,10,6,1,10,0.00,0,,295
2012-9-8,92,69,46,46,41,36,82,48,14,30.22,30.08,29.89,10,10,10,9,2,14,0.00,0,,61
2012-9-9,95,78,60,46,41,31,56,35,14,29.90,29.82,29.72,10,10,8,26,6,33,0.00,0,,296
2012-9-10,82,68,53,42,35,30,50,34,17,30.00,29.92,29.80,10,10,10,22,10,30,0.00,0,,283
2012-9-11,77,64,51,33,28,16,50,29,8,30.17,30.10,30.00,10,10,10,23,11,31,0.00,0,,318
2012-9-12,83,65,46,30,24,8,42,24,6,30.32,30.24,30.15,10,10,10,12,4,15,0.00,0,,298
2012-9-13,82,60,37,35,30,25,70,42,13,30.43,30.31,30.23,10,10,9,8,1,9,0.00,0,,252
2012-9-14,85,63,40,44,33,29,73,44,14,30.27,30.15,30.00,10,10,10,9,1,12,0.00,0,,282
2012-9-15,90,67,43,44,36,32,66,40,13,30.14,30.04,29.95,10,10,9,20,3,25,0.00,0,,316
2012-9-16,89,74,58,40,34,26,51,32,12,30.08,30.02,29.97,10,10,8,17,8,22,0.00,0,,309
2012-9-17,85,68,50,41,35,30,59,37,14,30.18,30.10,30.04,10,10,4,10,3,13,0.00,0,,247
2012-9-18,86,64,42,43,36,31,76,45,14,30.19,30.10,30.02,10,10,7,7,1,12,0.00,0,,254
2012-9-19,90,67,43,45,37,30,70,41,12,30.18,30.10,30.04,10,10,10,7,2,12,0.00,0,,277
2012-9-20,78,62,46,43,38,34,66,44,22,30.19,30.10,30.05,10,8,4,8,1,12,0.00,0,,172
2012-9-21,77,59,40,45,39,35,79,52,25,30.16,30.07,29.99,8,5,2,8,1,8,0.00,0,,222
2012-9-22,70,56,42,46,39,36,76,54,31,30.09,30.01,29.93,4,3,2,16,2,22,0.00,0,,194
2012-9-23,70,60,50,54,43,29,89,57,24,30.11,30.03,29.92,10,8,4,21,6,28,0.08,1,Rain,266
2012-9-24,79,62,44,51,46,42,93,62,30,30.14,30.04,29.95,10,10,9,9,3,12,0.00,0,,235
2012-9-25,82,68,53,50,45,44,72,49,26,29.99,29.94,29.88,10,9,7,9,4,,0.00,1,,233
2012-9-26,82,64,46,49,46,42,86,57,28,30.06,29.99,29.94,10,8,2,6,1,8,0.00,0,,165
2012-9-27,81,63,44,49,43,39,83,55,26,30.11,30.02,29.96,10,9,2,7,1,12,0.00,0,,221
2012-9-28,76,62,48,46,43,39,74,51,27,30.05,30.00,29.93,10,9,2,13,4,18,T,0,,260
2012-9-29,85,66,47,45,42,36,77,47,17,30.13,30.06,29.99,10,10,9,10,2,13,0.00,0,,242
2012-9-30,85,69,53,45,39,25,66,40,14,30.24,30.18,30.09,10,10,10,13,4,17,0.00,0,,271